Everett, WA
on Thursday, November 29, 2012

Thursday
Previous Day Next Day
Daily Summary
 ActualAverageRecord
Temperature
Mean Temperature °F °F  
Max Temperature 51°F 46°F 57°F (1989)
Min Temperature 48°F 34°F 16°F (2006)
Degree Days
Heating Degree Days 16    
Moisture
Dew Point 42°F   
Average Humidity 78    
Maximum Humidity 83    
Minimum Humidity 66    
Precipitation
Precipitation 0.14 in in in ()
Wind
Wind Speed 8 mph   
Max Wind Speed 12 mph   
Max Gust Speed 21 mph   
Visibility 10 miles   
Events Rain   
Averages and records for this station are not official NWS values.
Key: T is trace of precipitation, MM is missing value
Source: NWS Daily Summary
Seasonal Weather Averages
Time(PST)TemperatureDew PointHumidity Pressure Visibility Wind DirectionWind SpeedGust SpeedPrecipitationEvents Conditions
12:53 AM 48.9°F 43.0°F 80% 29.70 in 10.0 miles SSE 8.1 mph - N/A   Overcast
1:53 AM 48.0°F 42.1°F 80% 29.69 in 10.0 miles ESE 10.4 mph - N/A   Overcast
2:53 AM 48.9°F 41.0°F 74% 29.67 in 10.0 miles SE 8.1 mph 17.3 mph N/A   Overcast
3:53 AM 48.0°F 42.1°F 80% 29.64 in 10.0 miles ESE 9.2 mph - 0.00 in Rain Light Rain
4:53 AM 48.0°F 41.0°F 77% 29.61 in 10.0 miles ESE 11.5 mph - 0.00 in   Overcast
5:53 AM 48.9°F 39.9°F 71% 29.57 in 10.0 miles ESE 6.9 mph - 0.00 in   Mostly Cloudy
6:53 AM 51.1°F 39.9°F 66% 29.54 in 10.0 miles Variable 6.9 mph - 0.01 in Rain Light Rain
7:53 AM 50.0°F 42.1°F 74% 29.53 in 10.0 miles SE 8.1 mph - 0.01 in Rain Light Rain
8:53 AM 48.9°F 43.0°F 80% 29.55 in 10.0 miles SSE 10.4 mph - 0.02 in Rain Light Rain
9:53 AM 50.0°F 43.0°F 77% 29.58 in 9.0 miles SSE 11.5 mph - 0.03 in Rain Light Rain
10:53 AM 50.0°F 45.0°F 83% 29.60 in 9.0 miles SSE 10.4 mph 20.7 mph 0.02 in Rain Light Rain
11:53 AM 50.0°F 45.0°F 83% 29.61 in 10.0 miles SSE 11.5 mph 18.4 mph 0.01 in   Overcast
12:53 PM 50.0°F 43.0°F 77% 29.61 in 10.0 miles SSE 11.5 mph 18.4 mph 0.01 in Rain Light Rain
1:53 PM 50.0°F 44.1°F 80% 29.58 in 10.0 miles Variable 3.5 mph - 0.01 in   Overcast
2:53 PM 50.0°F 43.0°F 77% 29.58 in 10.0 miles SSE 4.6 mph - N/A   Overcast
3:53 PM 48.9°F 44.1°F 83% 29.57 in 10.0 miles ESE 5.8 mph - N/A   Overcast
4:53 PM 48.0°F 43.0°F 83% 29.56 in 10.0 miles ESE 8.1 mph - 0.00 in   Overcast
5:53 PM 48.0°F 42.1°F 80% 29.54 in 10.0 miles ESE 5.8 mph - N/A   Overcast
6:53 PM 48.9°F 41.0°F 74% 29.53 in 10.0 miles ESE 8.1 mph - 0.01 in   Overcast
7:53 PM 48.0°F 42.1°F 80% 29.51 in 10.0 miles ESE 6.9 mph - 0.01 in Rain Light Rain
8:53 PM 48.0°F 42.1°F 80% 29.51 in 10.0 miles SE 3.5 mph - 0.00 in   Overcast
9:53 PM 48.0°F 41.0°F 77% 29.51 in 10.0 miles ESE 6.9 mph - 0.00 in   Overcast
10:53 PM 48.0°F 39.9°F 74% 29.47 in 10.0 miles ESE 9.2 mph - 0.00 in   Mostly Cloudy
11:53 PM 48.0°F 39.9°F 74% 29.45 in 10.0 miles ESE 9.2 mph - N/A   Mostly Cloudy
Moon Phase
Nov. 29 Dec. 06 Dec. 13 Dec. 20 Dec. 28
Sunrise:07:35 AM (PST) Moon Rise:05:26 PM (PST)11/29
Sunset:04:19 PM (PST) Moon Set:08:27 AM (PST)11/29

Copyright © 2014 The Weather Underground, Inc.